Regional Weather Roundup
Issued by NWS

Home | Current Version | Previous Version | Text Only | Print | Product List | Glossary Off
Versions: 1 2 3 4 5 6 7 8 9 10 11 12 13 14 15 16 17 18 19 20 21 22 23 24 25 26 27 28 29 30 31 32 33 34 35 36 37 38 39 40 41 42 43 44 45 46 47 48 49 50

946
ASUS43 KBIS 271902
RWRND

NORTH DAKOTA REGIONAL WEATHER ROUNDUP
NATIONAL WEATHER SERVICE BISMARCK ND
200 PM CDT FRI MAY 27 2016

NOTE: "FAIR" INDICATES FEW OR NO CLOUDS BELOW 12,000 FEET WITH NO
SIGNIFICANT WEATHER AND/OR OBSTRUCTIONS TO VISIBILITY.


NDZ001>003-009>011-017-272000-
NORTHWEST NORTH DAKOTA

CITY           SKY/WX    TMP DP  RH WIND       PRES   REMARKS
WILLISTON      CLOUDY    66  49  54 NE8       29.85S
MINOT          CLOUDY    66  53  63 E8        29.82S
MINOT AFB      CLOUDY    62  55  75 NE10      29.82S
$$

NDZ018>021-031>035-040>046-272000-
SOUTHWEST NORTH DAKOTA

CITY           SKY/WX    TMP DP  RH WIND       PRES   REMARKS
BISMARCK       MOSUNNY   70  48  45 NE6       29.82F
DICKINSON      PTSUNNY   66  43  43 NE6       29.83S
GARRISON         N/A     62  50  64 W3        29.84S
HETTINGER ARPT CLOUDY    67  44  43 NE7       29.84F
$$

NDZ004>008-012>016-024-026-027-054-272000-
NORTHEAST NORTH DAKOTA

CITY           SKY/WX    TMP DP  RH WIND       PRES   REMARKS
GRAND FORKS    CLOUDY    72  56  57 N7        29.78F
GRND FRKS AFB  CLOUDY    69  52  54 VRB6      29.79F
DEVILS LAKE    CLOUDY    64  52  64 W6        29.82F
$$

NDZ022-023-025-028>030-036>039-047>053-272000-
SOUTHEAST NORTH DAKOTA

CITY           SKY/WX    TMP DP  RH WIND       PRES   REMARKS
FARGO          CLOUDY    75  58  55 N13       29.74F
JAMESTOWN      CLOUDY    67  54  63 N5        29.80S
$$





USA.gov is the U.S. government's official web portal to all federal, state and local government web resources and services.